Regional Weather Roundup
Issued by NWS

Home | Current Version | Previous Version | Graphics & Text | Print | Product List | Glossary On
Versions: 1 2 3 4 5 6 7 8 9 10 11 12 13 14 15 16 17 18 19 20 21 22 23 24 25 26 27 28 29 30 31 32 33 34 35 36 37 38 39 40 41 42 43 44 45 46 47 48 49 50
000
ASUS45 KCYS 150210
RWRWY

WYOMING REGIONAL WEATHER ROUNDUP
NATIONAL WEATHER SERVICE CHEYENNE WY
800 PM MDT SUN SEP 14 2014

NOTE:  "FAIR" INDICATES FEW OR NO CLOUDS BELOW 12,000 FEET
WITH NO SIGNIFICANT WEATHER AND/OR OBSTRUCTIONS TO VISIBILITY.

WYZ001-150300-
YELLOWSTONE NATIONAL PARK

CITY           SKY/WX    TMP DP  RH WIND       PRES   REMARKS
LK YELLOWSTONE   N/A     47  30  51 NW5       30.26R
W YELLOWSTONE  NOT AVBL

$$
WYZ002>013-054>058-071-098>099-150300-
NORTHERN WYOMING

CITY           SKY/WX    TMP DP  RH WIND       PRES   REMARKS
JACKSON        CLEAR     64  23  20 CALM      30.16R
CODY           CLEAR     52  39  62 N5        30.16R
GREYBULL       CLEAR     63  34  33 NW13      30.09R
WORLAND        CLEAR     56  41  57 CALM      30.09R
SHERIDAN       CLEAR     50  40  68 NW10      30.15R
BUFFALO        CLEAR     53  40  61 NW9       30.17R
GILLETTE       CLEAR     45  40  82 CALM      30.14R
HULETT         FAIR      48  37  66 MISG      30.16
NEWCASTLE      FAIR      50  39  66 SE6       30.14

$$
WYZ014>020-022>026-101>103-150300-
CENTRAL WYOMING

CITY           SKY/WX    TMP DP  RH WIND       PRES   REMARKS
BIG PINEY      PTCLDY    58  27  30 NW8       30.21R
PINEDALE       PTCLDY    54  27  35 NW7       30.21R
DUBOIS         FAIR      59  14  17 W9        30.19R
LANDER         CLEAR     60  35  39 NW6       30.12R
RIVERTON       CLEAR     59  33  37 N13       30.12R
CASPER         CLEAR     57  39  51 NE13      30.13R
DOUGLAS        CLEAR     52  42  69 NE8       30.15R

$$
WYZ021-027>030-104>119-150300-
SOUTHERN WYOMING

CITY           SKY/WX    TMP DP  RH WIND       PRES   REMARKS
EVANSTON       PTCLDY    65  31  28 W8        30.22R
KEMMERER       PTCLDY    61  30  31 NW7       30.23R
FORT BRIDGER   MOCLDY    65  29  26 W5        30.24R
ROCK SPRINGS   PTCLDY    67  26  21 NW10      30.17R
DIXON          FAIR      64  38  38 CALM      30.18S
RAWLINS        PTCLDY    68  20  16 W13       30.14R
SARATOGA       FAIR      63  32  31 SW10      30.18R
LARAMIE        CLOUDY    61  34  36 W9        30.18R
CHEYENNE       PTCLDY    56  48  74 NE6       30.13R
TORRINGTON     PTCLDY    54  46  74 N16       30.08R
PINE BLUFFS    FAIR      55  46  71 E3        30.09S

$$


USA.gov is the U.S. government's official web portal to all federal, state and local government web resources and services.